Showing default

CYGFM05, 41884

Orbit data source: Space-Track

CYGFM05, 41884 is an American payload satellite in LEO that was launched on Thu, 15 Dec 2016 UTC via a PEGASUS XL launch vehicle from the Pegasus Launch, Eastern Range Air Space (ERAS). Payload-class satellites include a variety of spacecraft equipped with specific instruments for various scientific and technological missions. These include communications satellites like Starlink; space stations such as the ISS; scientific satellites like the Hubble; Earth observation satellites from companies like Planet Labs, Umbra, and HawkEye 360; GPS; miniature CubeSats for education and research; and military/defense satellites.

Loading next visibility...
Identifier
41884, 2016-078A
Orbit
LEO
Country
Flag of USUS
Related business
Manufacturer
SST-US
Mission
Extended mission Civil Science
Bus & Motor
CYGNSS, Unknown motor
Mass
29 kg wet, 29 kg dry
Launch date (UTC)
2016-12-15 (9 years ago)
Launch vehicle
PEGASUS XL
Launch site
Pegasus Launch, Eastern Range Air Space (ERAS)
Object type
Payload
Rocket body
Debris
Shape & HBR
Half Hex Cyl + 2 Pan, 0.8 m
Radar Cross Section
0.450 m², Medium (>0.1 m² and < 1m²)

Expand to show TLE details & history
Last TLE update: 14 hours ago

TLE from 14 hours ago
0 CYGFM05
1 41884U 16078A   25259.26931967  .00016936  00000-0  37090-3 0  9990
2 41884  34.9594 256.5553 0007735  92.4813 267.6793 15.43176396486228
Epoch: 2025-09-16T06:27Z
TLE epoch observation values (Epoch: 2025-09-16T06:27:49.219Z)
Latitude
-0.00001°
Longitude
164.13817°
Altitude
435.852 km
Speed
7.652 km/s
True Right ascension
17h 06m 13s
True Declination
0° 00' 00"
Sunlit
Object was in daylight at epoch
Visualization orbit readout
Latitude
Unknown
Longitude
Unknown
Altitude
Unknown
Speed
Unknown
Apparent Right ascension
Unknown
Apparent Declination
Unknown
Sunlit
N/A
Visualization observer readout
Local Sidereal Time
12:54:33
Azimuth
Unknown
Elevation
Unknown
Doppler factor
Unknown
Orbital elements
Apogee altitude
445.301 km
Perigee altitude
434.753 km
Semi-major axis
6,818.164 km
Eccentricity
0.00077
Inclination
34.9594°
RAAN
256.5553°
Arg. of periapsis
92.4813°
True anomaly
267.59074°
Mean anomaly
267.6793°
Eccentric anomaly
267.63502°
Mean motion
3.85516 °/min
Orbital period
93.38 mins
BSTAR
0.0003709
Loading maneuver chart data...
Computing Atmospheric mass density...
Loading historical data...
Loading historical data...
Loading historical data...
Loading historical data...
Loading historical data...
Loading historical data...
Loading historical data...

Documentation

Showing up to 5 results
|